www.pogodaiklimat.ru

Погода и климат >> Архив погоды >> Россия >> Магаданская область >> Ягодное


ПОГОДА в Ягодной

  • Прогноз погоды в Ягодной
  • Монитор погоды в Ягодной

АРХИВ ПОГОДЫ в Ягодной

Время (UTC), дата Ветер
(напр.,м/с)
 
Видим.   Явления Облачность Т
(С)
Тd
(С)
f
(%)
Тe
(С)
Тes
(С)
Комфортность P
(гПа)
Po
(гПа)
Тmin
(С)
Tmax
(С)
R
(мм)
R24
(мм)
S
(см)
21 16.05 З 1 50 км 4/0
[Ci fib]
+9.1 +0.4 54 +9 +13 1014.5 953.2 -1.5
00 17.05 ЮЗ 4 50 км 5/3 1000 м
[Cu med, cong Ac trans Ci fib]
+15.5 +0.1 35 +15 +18 1013.1 953.3
03 17.05 З 4 50 км 3/1 1000 м
[Cu med, cong Ci fib]
+17.4 +0.1 31 +17 +23 1011.4 952.0
06 17.05 ЮЗ 3
{11}
50 км 3/1 1000 м
[Cu hum Ci fib]
+19.1 +0.2 28 +19 +24 1009.6 950.7
09 17.05 ЮЗ 3
{10}
50 км 4/0
[Ac lent Ci fib]
+16.5 -1.1 30 +16 +17 1010.2 950.7 +19.2
12 17.05 ЮЗ 4
{10}
50 км 5/3 1000 м
[Sc Ci fib]
+12.4 -1.9 37 +11 +11 1012.4 952.0
15 17.05 СВ 1
{10}
50 км 8/4 1000 м
[Sc Ci fib]
+9.3 -0.1 52 +9 +9 1013.1 952.0
18 17.05 З 2 н/о н/о +10.1 +1.2 54 +9 +9 1012.9 952.0
21 17.05 З 2 50 км 8/5 1000 м
[Cb cap Ac trans Ci fib]
+12.1 +1.5 48 +11 +13 1011.1 950.6 +9.3
00 18.05 Ю 2 50 км 9/5 1000 м
[Cb cap Ac trans Ci fib]
+13.4 +2.3 47 +13 +14 1010.8 950.7
03 18.05 С 3 50 км {ливн. осадки} 10/5 1000 м
[Cb cap Ac trans]
+13.0 +3.9 54 +12 +12 1010.9 950.7
06 18.05 СВ 3 50 км {ливн. осадки} 10/6 1000 м
[Cb cap Ac trans]
+9.7 +1.3 56 +8 +8 1011.6 950.7
09 18.05 СВ 3 50 км 10/5 1000 м
[Cb cap Ac trans]
+5.4 -0.6 65 +2 +2 1014.0 952.0 +15.0 0.0
12 18.05 СВ 3 50 км 10/6 1000 м
[Cb cap Ac trans]
+1.4 -2.4 76 -3 -3 1014.9 952.0
15 18.05 СВ 3 50 км 10/5 1000 м
[Cb cap Ac trans]
-0.2 -2.7 83 -5 -5 1015.3 952.0
18 18.05 СВ 2 20 км слаб. ливневой снег 10/10 960 м
[Cb cap]
-1.3 -3.5 85 -5 -5 1014.2 950.7
21 18.05 С 1 10 км слаб. ливневой снег 10/10 930 м
[Cb cap]
-1.2 -4.1 81 -3 -3 1012.3 948.8 -1.7 0.2
00 19.05 СВ 3 20 км слаб. ливневой снег 10/10 930 м
[Cb cap]
-0.7 -4.9 73 -5 -5 1011.2 948.0
03 19.05 СВ 2 50 км {ливн. осадки} 10/6 1000 м
[Cb cap Ac trans]
-0.5 -5.1 71 -4 -4 1008.3 945.3
06 19.05 СВ 1 20 км слаб. ливневой снег 10/8 1000 м
[Cb cap Ac trans]
-0.8 -4.8 74 -3 -3 1005.6 942.7
09 19.05 С 2 20 км слаб. ливневой снег 10/8 1000 м
[Cb cap Ac trans]
-3.0 -4.0 93 -7 -7 1006.1 942.7 -0.1 1
12 19.05 С 2
{11}
20 км слаб. ливневой снег 10/10 960 м
[Cb cap]
-3.3 -5.1 87 -7 -7 1006.2 942.7
15 19.05 С 2
{10}
20 км слаб. ливневой снег 10/10 960 м
[Cb cap]
-3.5 -7.4 74 -7 -7 1005.3 941.7
18 19.05 С 2
{10}
20 км слаб. ливневой снег 10/10 960 м
[Cb cap]
-4.4 -7.3 80 -9 -9 1007.8 944.0
21 19.05 С 2 20 км слаб. ливневой снег 10/10 960 м
[Cb cap]
-4.3 -7.7 77 -8 -8 1008.3 944.3 -4.8 2 3
00 20.05 ЮЗ 2 10 км слаб. ливневой снег 10/10 960 м
[Cb cap]
-3.7 -5.0 91 -8 -8 1010.5 946.7
03 20.05 С 2 20 км слаб. ливневой снег 10/10 1000 м
[Cb cap]
-2.2 -5.7 77 -6 -6 1011.8 948.1
06 20.05 С 2 20 км слаб. ливневой снег 10/10 960 м
[Cb cap]
-1.6 -6.0 72 -5 -5 1014.3 950.7
09 20.05 СВ 1 20 км слаб. ливневой снег 10/5 1000 м
[Cb cap Ac trans]
-2.2 -6.6 72 -4 -4 1017.2 953.3 -1.5 1
12 20.05 штиль 0 50 км {ливн. осадки} 9/6 1000 м
[Sc Ac trans]
-5.3 -7.9 82 -6 -6 1020.9 956.0
15 20.05 ЮВ 1 50 км 3/0
[Ci fib]
-9.2 -10.3 92 -12 -12 1023.3 957.3
18 20.05 штиль 0 50 км ясно -11.2 -12.1 93 -11 -11 1025.3 958.7
21 20.05 З 1 50 км ясно -4.6 -7.4 81 -7 -2 1025.0 960.0 -11.5 0.0 3
00 21.05 ЮВ 3 50 км 2 балла +1.8 -6.8 53 -2 +5 1023.4 960.0
03 21.05 В 2 50 км 8/0
[Ci fib]
+6.6 -4.2 46 +5 +9 1020.9 958.7
06 21.05 ЮВ 2 50 км 8/0
[Ci fib]
+9.2 -5.1 36 +8 +10 1018.8 957.3
09 21.05 ЮВ 2 50 км 5/0
[Ac trans Ci fib]
+8.6 -4.9 38 +7 +8 1019.0 957.3 +10.0
12 21.05 В 1 50 км 8/0
[Ac trans Ci fib]
+2.8 -4.4 59 +2 +2 1021.8 958.7
15 21.05 В 1 50 км 9/0
[Ac trans Ci fib]
+0.9 -4.3 68 -1 -1 1020.7 957.3
18 21.05 СЗ 1 50 км 9/0
[Ac trans Ci fib]
-1.2 -4.2 80 -3 -3 1021.2 957.3
21 21.05 штиль 0 50 км 10/6 1000 м
[Cb cap Ac trans]
+3.4 -2.4 66 +3 +4 1019.5 956.6 -1.2
00 22.05 ЮВ 2 50 км 10/5 1000 м
[Cb cap Ac As]
+7.5 -3.1 47 +6 +6 1017.8 956.0
03 22.05 ЮВ 3 50 км 10/6 1000 м
[Cb cap Ac trans]
+8.9 -2.1 46 +7 +7 1016.1 954.7
06 22.05 В 2 20 км слаб. ливневой дождь 10/10 960 м
[Cb cap]
+6.2 +3.0 80 +4 +4 1015.2 953.3
09 22.05 В 1 20 км слаб. ливневой дождь 10/10 960 м
[Cb cap]
+5.1 +3.3 88 +4 +4 1014.0 952.0 +9.1 0.7
12 22.05 штиль 0 20 км слаб. ливневой дождь 10/10 1050 м
[Cb cap]
+3.7 +3.1 96 +2 +2 1011.5 949.3
15 22.05 В 1 50 км в посл. час ливневой дождь 10/10 840 м
[Cb cap]
+3.9 +3.5 97 +2 +2 1008.0 946.0
18 22.05 штиль 0 50 км {ливн. осадки} 5/0
[Ac trans Ci fib]
+3.2 +2.9 98 +2 +2 1008.8 946.7
21 22.05 З 1 50 км 3/3 1000 м
[Sc]
+7.9 +5.9 87 +7 +10 1005.8 944.7 +2.6 2
00 23.05 ЮВ 3 50 км 8/3 1000 м
[Sc Ac trans Ci fib]
+12.8 +3.5 53 +12 +14 1003.8 944.0
03 23.05 Ю 3 50 км 9 баллов +13.0 +1.9 47 +12 +13 1002.4 942.7
06 23.05 В 3 20 км слаб. ливневой дождь 10/10 1000 м
[Cb cap]
+8.5 +6.6 88 +6 +6 1001.8 941.3
09 23.05 ЮВ 3 20 км слаб. ливневой дождь 10/10 960 м
[Cb cap]
+7.1 +4.6 84 +4 +4 1002.1 941.3 +14.4 0.6
12 23.05 В 1 50 км в посл. час ливневой дождь 10 баллов +4.7 +4.1 96 +3 +3 1001.3 940.0
15 23.05 В 2 50 км {ливн. осадки} 10/10 1000 м
[Cb cap]
+2.5 +2.1 97 -1 -1 1000.1 938.3
18 23.05 штиль 0 20 км слаб. ливневой дождь 10 баллов +2.8 +2.7 99 +2 +2 1000.4 938.7

 

Местоположение метеостанции Ягодное (Магаданская область, Россия): широта 62.51 долгота 149.60 высота над уровнем моря 518 м.

В архиве по умолчанию представлена погода в Ягодной за последнюю неделю. Архивные данные за месяц целиком и за предыдущие месяцы, начиная с января 2011 года, Вы можете получить, выбрав интересующий диапазон дат из раскрывающегося списка и нажав кнопку "Ввод!".


*Определитесь, кто Вы:
робот инопланетянин человек

Внимание! Время в таблицах - всемирное. Для получения местного времени необходимо прибавить поправку, которая равна 11 ч.

Смотрите также архив погоды в соседних городах и на ближайших метеорологических станциях:

Погода на Озере Джека Лондона (Магаданская область, Россия) (48 км)
Погода в Совхозе Эльген (Магаданская область, Россия) (60 км)
Погода в Усть-Бохапче (Магаданская область, Россия) (69 км)
Погода в Сусумане (Магаданская область, Россия) (82 км)
Погода в Колымской (Магаданская область, Россия) (127 км)
Погода в Среднекане (Магаданская область, Россия) (139 км)
Погода в Сеймчане (Магаданская область, Россия) (150 км)
Погода в Усть-Омчуге (Магаданская область, Россия) (155 км)
Погода в Талой (Магаданская область, Россия) (209 км)
Погода в Мадауне (Магаданская область, Россия) (220 км)

Пояснения к столбцам:

Ветер - указаны скорость ветра в м/с - средняя за 10 мин, порывы в срок и между сроками (в фигурных скобках) и направление, откуда дует ветер: С - северный, СВ - северо-восточный, В - восточный, ЮВ - юго-восточный, Ю - южный, ЮЗ - юго-западный, З - западный, СЗ - северо-западный.
Видимость - горизонтальная дальность видимости в метрах или километрах. При видимости от 1 до 10 км при отсутствии осадков обычно наблюдается дымка, при ухудшении видимости до 1 км и менее - туман. В сухую погоду видимость может ухудшаться дымом, пылью или мглою.
Явления - указаны атмосферные явления, наблюдавшиеся в срок или в последний час перед сроком; фигурными скобками обозначены явления, наблюдавшиеся между сроками (за 1-3 часа до срока); квадратными скобками обозначены град или гололедные отложения с указанием их диаметра в мм.
Облачность - указаны через наклонную черту общая и нижняя облачность в баллах и высота нижней границы облаков в метрах; квадратными скобками обозначены формы облаков: Ci - перистые, Cs - перисто-слоистые, Cc - перисто-кучевые, Ac - высококучевые, As - высокослоистые, Sc - слоисто-кучевые, Ns - слоисто-дождевые, Cu - кучевые, Cb - кучево-дождевые. Подробнее классификацию облаков см. в Атласе облаков (PDF).
T - Температура воздуха - температура, измеренная на высоте 2 м над землей.
Td - Температура точки росы - температура, при понижении до которой содержащийся в воздухе водяной пар достигнет насыщения.
f - Относительная влажность воздуха - влажноcть воздуха, измеренная на высоте 2 м над землей.
Te - Эффективная температура - температура, которую ощущает одетый по сезону человек в тени. Характеристика душности погоды. При расчете учитывается влияние влажности воздуха и скорости ветра на теплоощущения человека.
Tes - Эффективная температура на солнце - температура, которую ощущает человек, с поправкой на солнечный нагрев. Характеристика знойности погоды. Зависит от высоты солнца над горизонтом, облачности и скорости ветра. Ночью, в пасмурную погоду, а также при ветре 12 м/с и более поправка равна нулю.
P - Атмосферное давление - приведенное к уровню моря атмосферное давление.
Po - Атмосферное давление - измеренное на уровне метеостанции атмосферное давление.
Tmin - Минимальная температура - минимум температуры воздуха на высоте 2 м над землей.
Tmax - Максимальная температура - максимум температуры воздуха на высоте 2 м над землей.
R - Количество осадков - Количество выпавших осадков за период времени, мм. При наведении курсора мыши на число - период времени, за который выпало указанное количество осадков.
R24 - Количество осадков - Количество выпавших осадков за 24 часа, мм.
S - Снежный покров - Высота снежного покрова, см. При наведении курсора мыши на число - состояние снежного покрова и степень покрытия местности в баллах.